Stephenville, TX

4:41 AM CDT on August 26, 2016 (GMT -0500)
Clark Municipal

Weather History for KSEP - July, 2013

Change the Weather History Date:

Saturday, July 13, 2013

  Actual Average Record
Temperature  
Mean Temperature 88 °F -  
Max Temperature 103 °F 92 °F 105 °F (1954)
Min Temperature 73 °F 70 °F 60 °F (1975)
Cooling Degree Days 22    
Growing Degree Days 38 (Base 50)    
Moisture  
Dew Point 57 °F    
Average Humidity 36    
Maximum Humidity 67    
Minimum Humidity 18    
Precipitation  
Precipitation 0.00 in - - ()
Sea Level Pressure  
Sea Level Pressure 29.98 in    
Wind  
Wind Speed 4 mph (ESE)    
Max Wind Speed 14 mph    
Max Gust Speed 17 mph    
Visibility 10 miles    
Events      
Averages and records for this station are not official NWS values.
T = Trace of Precipitation, MM = Missing Value Source: NWS Daily Summary

Daily Weather History Graph

Daily Weather History Graph

Search for Another Location

Airport or City:

Trip Planner

Search our weather history database for the weather conditions in past years. The results will help you decide how hot, cold, wet, or windy it might be!

Date:

Astronomy

Jul. 13, 2013 Rise Set
Actual Time 6:35 AM CDT 8:40 PM CDT
Civil Twilight 6:08 AM CDT 9:08 PM CDT
Nautical Twilight 5:34 AM CDT 9:42 PM CDT
Astronomical Twilight 4:57 AM CDT 10:18 PM CDT
Moon 11:32 AM CDT (7/13) 11:45 PM CDT (7/13)
Length of Visible Light 15h 00m
Length of Day
14h 05m
Waxing Crescent, 26% of the Moon is Illuminated
Jul 13
Waxing Crescent
Jul 15
First Quarter
Jul 22
Full
Jul 29
Last Quarter
Aug 6
New

Hourly Weather History & Observations

Time (CDT) Temp. Heat Index Dew Point Humidity Pressure Visibility Wind Dir Wind Speed Gust Speed Precip Events Conditions
12:15 AM 85.3 °F 85.0 °F 59.5 °F 42% 29.98 in 10.0 mi ESE 6.9 mph - N/A   Scattered Clouds
12:35 AM 86.2 °F 85.6 °F 59.0 °F 40% 29.99 in 10.0 mi ESE 4.6 mph - N/A   Scattered Clouds
12:55 AM 85.1 °F 84.6 °F 59.2 °F 41% 29.99 in 10.0 mi Calm Calm - N/A   Clear
1:15 AM 84.0 °F 84.0 °F 59.7 °F 44% 29.99 in 10.0 mi Calm Calm - N/A   Scattered Clouds
1:35 AM 83.5 °F 83.6 °F 60.1 °F 45% 29.99 in 10.0 mi Calm Calm - N/A   Clear
1:55 AM 81.5 °F 82.1 °F 60.8 °F 49% 29.99 in 10.0 mi East 3.5 mph - N/A   Clear
2:15 AM 81.5 °F 82.4 °F 61.5 °F 51% 29.99 in 10.0 mi ESE 5.8 mph - N/A   Clear
2:35 AM 81.5 °F 82.4 °F 61.7 °F 51% 29.99 in 10.0 mi ESE 5.8 mph - N/A   Clear
2:55 AM 81.7 °F 82.3 °F 61.0 °F 49% 29.99 in 10.0 mi SSE 3.5 mph - N/A   Clear
3:15 AM 81.0 °F 81.7 °F 61.0 °F 50% 29.99 in 10.0 mi Calm Calm - N/A   Clear
3:35 AM 80.6 °F 81.5 °F 61.0 °F 51% 29.99 in 10.0 mi Calm Calm - N/A   Clear
3:55 AM 79.7 °F - 61.2 °F 53% 29.99 in 10.0 mi Calm Calm - N/A   Clear
4:15 AM 78.8 °F - 61.7 °F 56% 29.99 in 10.0 mi Calm Calm - N/A   Clear
4:35 AM 77.9 °F - 61.7 °F 57% 29.99 in 10.0 mi Calm Calm - N/A   Clear
4:55 AM 77.7 °F - 61.7 °F 58% 29.99 in 10.0 mi Calm Calm - N/A   Clear
5:15 AM 77.2 °F - 61.9 °F 59% 29.99 in 10.0 mi Calm Calm - N/A   Clear
5:35 AM 76.8 °F - 61.9 °F 60% 30.00 in 10.0 mi Calm Calm - N/A   Clear
5:55 AM 75.2 °F - 61.7 °F 63% 30.00 in 10.0 mi Calm Calm - N/A   Clear
6:15 AM 74.7 °F - 61.9 °F 64% 30.01 in 10.0 mi Calm Calm - N/A   Clear
6:35 AM 73.6 °F - 61.9 °F 67% 30.01 in 10.0 mi Calm Calm - N/A   Clear
6:55 AM 75.6 °F - 61.7 °F 62% 30.02 in 10.0 mi Calm Calm - N/A   Clear
7:15 AM 75.4 °F - 62.1 °F 63% 30.02 in 10.0 mi Calm Calm - N/A   Clear
7:35 AM 75.7 °F - 63.5 °F 66% 30.02 in 10.0 mi Calm Calm - N/A   Clear
7:55 AM 78.4 °F - 62.6 °F 58% 30.02 in 10.0 mi Calm Calm - N/A   Clear
8:15 AM 80.8 °F 81.6 °F 61.0 °F 51% 30.03 in 10.0 mi Calm Calm - N/A   Clear
8:35 AM 83.1 °F 83.5 °F 61.2 °F 47% 30.03 in 10.0 mi Calm Calm - N/A   Clear
8:55 AM 86.9 °F 86.3 °F 59.0 °F 39% 30.03 in 10.0 mi West 4.6 mph - N/A   Clear
9:15 AM 88.0 °F 86.9 °F 58.1 °F 36% 30.04 in 10.0 mi WSW 5.8 mph - N/A   Clear
9:35 AM 89.6 °F 88.4 °F 57.6 °F 34% 30.04 in 10.0 mi WSW 3.5 mph - N/A   Clear
9:55 AM 90.9 °F 89.4 °F 57.0 °F 32% 30.04 in 10.0 mi SW 5.8 mph - N/A   Clear
10:15 AM 91.9 °F 90.3 °F 55.9 °F 30% 30.04 in 10.0 mi West 6.9 mph - N/A   Clear
10:35 AM 93.0 °F 91.1 °F 55.6 °F 28% 30.04 in 10.0 mi West 4.6 mph - N/A   Clear
10:55 AM 94.1 °F 91.9 °F 54.7 °F 26% 30.03 in 10.0 mi Calm Calm - N/A   Clear
11:15 AM 94.6 °F 92.9 °F 55.4 °F 27% 30.03 in 10.0 mi Calm Calm - N/A   Clear
11:35 AM 95.9 °F 94.2 °F 55.8 °F 26% 30.03 in 10.0 mi NW 4.6 mph - N/A   Clear
11:55 AM 95.5 °F 94.1 °F 56.3 °F 27% 30.02 in 10.0 mi SSE 6.9 mph - N/A   Scattered Clouds
12:15 PM 95.4 °F 93.8 °F 56.1 °F 27% 30.02 in 10.0 mi Calm Calm - N/A   Scattered Clouds
12:35 PM 96.4 °F 95.0 °F 55.9 °F 26% 30.02 in 10.0 mi SW 5.8 mph - N/A   Clear
12:55 PM 97.7 °F 95.9 °F 55.2 °F 24% 30.01 in 10.0 mi East 5.8 mph - N/A   Clear
1:15 PM 98.1 °F 96.1 °F 54.7 °F 23% 30.01 in 10.0 mi Calm Calm - N/A   Scattered Clouds
1:35 PM 96.6 °F 94.5 °F 54.5 °F 24% 30.00 in 10.0 mi Calm Calm - N/A   Clear
1:55 PM 99.7 °F 97.8 °F 54.0 °F 22% 29.99 in 10.0 mi NNE 3.5 mph - N/A   Clear
2:15 PM 99.0 °F 96.9 °F 53.6 °F 22% 29.98 in 10.0 mi Calm Calm - N/A   Clear
2:35 PM 101.5 °F - 50.0 °F 18% 29.98 in 10.0 mi ESE 4.6 mph - N/A   Clear
2:55 PM 101.8 °F - 52.9 °F 19% 29.97 in 10.0 mi East 8.1 mph - N/A   Scattered Clouds
3:15 PM 98.6 °F - 52.9 °F 21% 29.96 in 10.0 mi Calm Calm - N/A   Scattered Clouds
3:35 PM 101.7 °F - 52.9 °F 20% 29.96 in 10.0 mi ENE 5.8 mph - N/A   Scattered Clouds
3:55 PM 101.3 °F - 51.6 °F 19% 29.95 in 10.0 mi Calm Calm - N/A   Scattered Clouds
4:15 PM 99.3 °F - 52.9 °F 21% 29.94 in 10.0 mi NNE 5.8 mph - N/A   Scattered Clouds
4:35 PM 99.5 °F - 52.5 °F 21% 29.94 in 10.0 mi East 3.5 mph - N/A   Clear
4:55 PM 102.9 °F - 52.3 °F 18% 29.93 in 10.0 mi ENE 10.4 mph 16.1 mph N/A   Scattered Clouds
5:15 PM 98.6 °F - 52.3 °F 21% 29.93 in 10.0 mi Calm Calm - N/A   Scattered Clouds
5:35 PM 102.2 °F - 52.3 °F 19% 29.93 in 10.0 mi East 9.2 mph - N/A   Clear
5:55 PM 100.9 °F 98.7 °F 53.1 °F 20% 29.92 in 10.0 mi ESE 13.8 mph - N/A   Scattered Clouds
6:15 PM 99.5 °F 97.6 °F 54.9 °F 22% 29.92 in 10.0 mi East 11.5 mph 17.3 mph N/A   Scattered Clouds
6:35 PM 97.3 °F 95.5 °F 54.5 °F 24% 29.91 in 10.0 mi East 9.2 mph - N/A   Clear
6:55 PM 99.0 °F 96.9 °F 54.0 °F 22% 29.91 in 10.0 mi East 8.1 mph - N/A   Clear
7:15 PM 98.8 °F 97.0 °F 54.5 °F 23% 29.91 in 10.0 mi ESE 9.2 mph - N/A   Clear
7:35 PM 96.8 °F 95.1 °F 55.2 °F 25% 29.91 in 10.0 mi East 11.5 mph - N/A   Clear
7:55 PM 95.4 °F 93.8 °F 56.7 °F 27% 29.92 in 10.0 mi East 10.4 mph - N/A   Clear
8:15 PM 94.5 °F 93.3 °F 57.4 °F 29% 29.93 in 10.0 mi East 9.2 mph - N/A   Clear
8:35 PM 93.6 °F 92.4 °F 57.4 °F 30% 29.93 in 10.0 mi ESE 8.1 mph - N/A   Clear
8:55 PM 92.1 °F 90.8 °F 57.4 °F 31% 29.93 in 10.0 mi East 5.8 mph - N/A   Clear
9:15 PM 91.4 °F 90.1 °F 57.6 °F 32% 29.93 in 10.0 mi East 9.2 mph - N/A   Clear
9:35 PM 90.3 °F 89.3 °F 58.1 °F 34% 29.94 in 10.0 mi ESE 6.9 mph - N/A   Scattered Clouds
9:55 PM 89.6 °F 88.6 °F 58.3 °F 35% 29.95 in 10.0 mi East 6.9 mph - N/A   Scattered Clouds
10:15 PM 88.9 °F 87.7 °F 58.3 °F 35% 29.96 in 10.0 mi East 11.5 mph - N/A   Clear
10:35 PM 88.9 °F 87.5 °F 56.8 °F 34% 29.97 in 7.0 mi East 10.4 mph - N/A   Clear
10:55 PM 88.9 °F 87.1 °F 55.4 °F 32% 29.97 in 10.0 mi ESE 11.5 mph - N/A   Clear
11:15 PM 88.2 °F 86.3 °F 55.0 °F 32% 29.97 in 10.0 mi ESE 10.4 mph - N/A   Clear
11:35 PM 87.3 °F 85.7 °F 55.4 °F 34% 29.97 in 10.0 mi ESE 12.7 mph 17.3 mph N/A   Clear
11:55 PM 86.9 °F 85.3 °F 55.6 °F 34% 29.98 in 10.0 mi ESE 11.5 mph - N/A   Clear